"Pseudo-MPEC" for P22ooOw

Created 2026 Jul 25 20:35:12 UT using Find_Orb

Click here for an explanation of pseudo-MPECs

 
 Astrometry: 
     P22ooOw*0C2026 07 16.32557217 43 53.737+55 10 56.97   ~7NF5 21.96wXNEOCPF52
     P22ooOw 0C2026 07 16.33823717 43 52.710+55 11 06.30   ~7NF5 22.23wXNEOCPF52
     P22ooOw 0C2026 07 16.35092717 43 51.670+55 11 15.52   ~7NF5 22.39wXNEOCPF52
     P22ooOw 0C2026 07 16.36364517 43 50.603+55 11 24.72   ~7NF5 22.57wXNEOCPF52
     P22ooOw 3C2026 07 17.27810217 42 45.595+55 22 11.93   ~7NF5 21.80GVNEOCPT14
     P22ooOw 3C2026 07 17.27907517 42 45.514+55 22 12.69   ~7NF5 21.79GVNEOCPT14
     P22ooOw 3C2026 07 17.28005217 42 45.432+55 22 13.37   ~7NF5 21.79GVNEOCPT14
     P22ooOw 1C2026 07 17.31522117 42 42.510+55 22 38.66   ~7NF5x21.91GVNEOCPT12
     P22ooOw 1C2026 07 17.31746017 42 42.360+55 22 40.49   ~7NF5 22.46GVNEOCPT12
     P22ooOw 1C2026 07 17.31969717 42 42.203+55 22 41.93   ~7NF5 22.22GVNEOCPT12
     P22ooOw 3C2026 07 18.32761717 41 29.400+55 34 13.25   ~7NF5 21.65GVNEOCPT14
     P22ooOw 3C2026 07 18.32859117 41 29.312+55 34 13.94   ~7NF5 22.05GVNEOCPT14
     P22ooOw 3C2026 07 18.32956417 41 29.232+55 34 14.60   ~7NF5 22.67GVNEOCPT14
     P22ooOw 1C2026 07 18.35137217 41 27.415+55 34 29.28   ~7NF5 21.59GVNEOCPT12
     P22ooOw 1C2026 07 18.35499917 41 27.119+55 34 31.80   ~7NF5 21.77GVNEOCPT12
     P22ooOw 1C2026 07 20.39343817 38 59.562+55 56 38.32   ~7NF5 22.30GVNEOCPT12
     P22ooOw 0C2026 07 20.40177617 38 58.895+55 56 43.21   ~7NF5 22.05GVNEOCPF52
     P22ooOw 0C2026 07 20.41518517 38 57.805+55 56 51.19   ~7NF5 21.80GVNEOCPF52
     P22ooOw 0C2026 07 20.42858617 38 56.698+55 56 59.29   ~7NF5 21.73GVNEOCPF52
     P22ooOw 0C2026 07 20.44204617 38 55.618+55 57 06.93   ~7NF5 21.84GVNEOCPF52
     P22ooOw 1C2026 07 22.32434417 36 41.241+56 16 15.77   ~7NF5 22.28GVNEOCPT12
     P22ooOw 1C2026 07 22.32728817 36 40.995+56 16 17.51   ~7NF5 22.27GVNEOCPT12
     P22ooOw 1C2026 07 22.33022317 36 40.752+56 16 19.26   ~7NF5 22.52GVNEOCPT12
     P22ooOw  C2026 07 23.33351817 35 27.395+56 25 54.00   ~7NF5 22.5 GWNEOCPH01
     P22ooOw  C2026 07 23.33884317 35 26.988+56 25 56.64   ~7NF5 22.5 GWNEOCPH01
     P22ooOw  C2026 07 23.34737617 35 26.299+56 26 01.11   ~7NF5 21.7 GWNEOCPH01
     P22ooOw  C2026 07 23.35452617 35 25.754+56 26 04.67   ~7NF5 23.0 GWNEOCPH01
     P22ooOw 1C2026 07 24.34752217 34 15.761+56 35 31.23   ~7OHK 22.55GVNEOCPT12
     P22ooOw 1C2026 07 24.34976017 34 15.575+56 35 32.45   ~7OHK 22.55GVNEOCPT12
     P22ooOw 1C2026 07 24.35199917 34 15.385+56 35 33.70   ~7OHK 22.54GVNEOCPT12

Station data:
(F52) Pan-STARRS 2, Haleakala  (N20.707382 W156.255910)  US/Hawaii.
   Observers J. Herman, T. Lowe, P. Minguez, A. Schultz, I. Smith. Measurers
   K. Chambers, T. de Boer, J. Fairlamb, H. Gao, M. Huber, C.-C. Lin, E.
   Magnier, Y. Ramanjooloo, R. Wainscoat, R. Weryk. 1.8-m Ritchey-Chrétien +
   CCD.
(H01) Magdalena Ridge Observatory, Socorro  (N33.984833 W107.189333)  US/New
   Mexico.  Observers W. H. Ryan, E. V. Ryan. Measurer W. H. Ryan. 2.4-m
   f/8.9 reflector + CCD.
(T12) Mauna Kea-UH/Tholen NEO Follow-Up (2.24-m)  (N19.822991 W155.469434)
   US/Hawaii.  Observer R. Weryk. 2.24-m f/10.1 University of Hawaii
   reflector.
(T14) Mauna Kea-UH/Tholen NEO Follow-Up (CFHT)  (N19.825252 W155.468876)
   US/Hawaii.  Observer R. Weryk. 3.6-m Canada-France-Hawaii Telescope.

Orbital elements:  P22ooOw
   Perihelion 2026 Sep 11.263282 +/- 0.0146 TT =  6:19:07.5 (JD 2461294.763282)
Epoch 2026 Jul 24.0 TT = JDT 2461245.5   Earth MOID: 0.0260   Ju: 0.6260
M 350.141060330 +/- 0.17            (J2000 ecliptic)             AutoNEOCP
n   0.200127545 +/- 0.00353         Peri.  179.724509 +/- 0.027
a   2.894663843 +/- 0.0345          Node   169.410893 +/- 0.012
e   0.66130705 +/- 0.004            Incl.   30.681553 +/- 0.08
P   4.92490                H 21.25  G  0.15   U  8.9
q 0.980402225 +/- 1.05e-5    Q 4.808925460 +/- 0.0689
29 of 30 observations 2026 July 16-24; mean residual 0".06
Residuals in arcseconds: 
260716 F52  .06-  .05-    260718 T14  .07+  .01+    260722 T12  .00   .01+    
260716 F52  .07+  .01+    260718 T14  .01+  .03+    260722 T12  .00   .00     
260716 F52  .11+  .02+    260718 T14  .01+  .03+    260722 T12  .03+  .01+    
260716 F52  .06-  .06+    260718 T12  .04-  .06-    260723 H01  .11+  .06+    
260717 T14  .04-  .03-    260718 T12  .01+  .02+    260723 H01  .20+  .04-    
260717 T14  .05-  .01+    260720 T12  .06-  .03-    260723 H01  .02+  .06+    
260717 T14  .07-  .02-    260720 F52  .09-  .02-    260723 H01  .10+  .02-    
260717 T12( .36-  .14-)   260720 F52  .04+  .04-    260724 T12  .00   .02-    
260717 T12  .06-  .09+    260720 F52  .03-  .14+    260724 T12  .01+  .01-    
260717 T12  .18+  .07-    260720 F52  .12+  .09-    260724 T12  .01-  .03+    

Ephemerides (geocentric):
Date (UTC) HH   RA             Dec           delta  r     elong  mag " sig PA
---- --------  ------------   ------------  ------ ------ -----  --- --------
2026 07 25 21  17 32 26.945   +56 49 05.15  .49932 1.1775  96.0 22.2 .052 172
2026 07 25 22  17 32 23.975   +56 49 27.09  .49895 1.1772  96.0 22.2 .054 171
2026 07 25 23  17 32 21.006   +56 49 48.99  .49859 1.1769  96.0 22.2 .057 171
2026 07 26 00  17 32 18.037   +56 50 10.87  .49822 1.1766  95.9 22.2 .060 170
2026 07 26 01  17 32 15.068   +56 50 32.73  .49785 1.1763  95.9 22.2 .063 169
2026 07 26 02  17 32 12.099   +56 50 54.55  .49748 1.1760  95.9 22.2 .067 169
2026 07 26 03  17 32 09.131   +56 51 16.35  .49712 1.1757  95.9 22.2 .070 168
2026 07 26 04  17 32 06.163   +56 51 38.12  .49675 1.1754  95.9 22.2 .073 168
2026 07 26 05  17 32 03.196   +56 51 59.86  .49638 1.1751  95.9 22.2 .076 167
2026 07 26 06  17 32 00.229   +56 52 21.58  .49602 1.1748  95.9 22.2 .080 167
2026 07 26 07  17 31 57.262   +56 52 43.26  .49565 1.1745  95.8 22.2 .083 166
2026 07 26 08  17 31 54.295   +56 53 04.92  .49528 1.1742  95.8 22.2 .086 166
2026 07 26 09  17 31 51.329   +56 53 26.56  .49491 1.1739  95.8 22.2 .090 165
2026 07 26 10  17 31 48.363   +56 53 48.16  .49454 1.1736  95.8 22.2 .093 165
2026 07 26 11  17 31 45.397   +56 54 09.74  .49417 1.1733  95.8 22.2 .097 165
2026 07 26 12  17 31 42.431   +56 54 31.29  .49381 1.1730  95.8 22.2 .101 164
2026 07 26 13  17 31 39.466   +56 54 52.82  .49344 1.1727  95.7 22.2 .104 164
2026 07 26 14  17 31 36.501   +56 55 14.31  .49307 1.1724  95.7 22.2 .108 164
2026 07 26 15  17 31 33.537   +56 55 35.78  .49270 1.1721  95.7 22.2 .112 163
2026 07 26 16  17 31 30.573   +56 55 57.23  .49233 1.1718  95.7 22.2 .116 163
2026 07 26 17  17 31 27.609   +56 56 18.64  .49196 1.1715  95.7 22.2 .120 163
2026 07 26 18  17 31 24.645   +56 56 40.04  .49159 1.1712  95.7 22.2 .124 163
2026 07 26 19  17 31 21.682   +56 57 01.40  .49122 1.1709  95.7 22.2 .128 162
2026 07 26 20  17 31 18.718   +56 57 22.74  .49085 1.1706  95.6 22.2 .132 162
2026 07 26 21  17 31 15.756   +56 57 44.05  .49048 1.1703  95.6 22.2 .136 162
2026 07 26 22  17 31 12.793   +56 58 05.33  .49012 1.1700  95.6 22.2 .141 161
2026 07 26 23  17 31 09.831   +56 58 26.59  .48975 1.1697  95.6 22.2 .145 161
2026 07 27 00  17 31 06.869   +56 58 47.83  .48938 1.1694  95.6 22.2 .149 161
2026 07 27 01  17 31 03.907   +56 59 09.03  .48901 1.1691  95.6 22.2 .154 161
2026 07 27 02  17 31 00.946   +56 59 30.21  .48863 1.1688  95.6 22.2 .158 161
2026 07 27 03  17 30 57.985   +56 59 51.37  .48826 1.1685  95.5 22.2 .163 160
2026 07 27 04  17 30 55.024   +57 00 12.50  .48789 1.1682  95.5 22.2 .167 160
2026 07 27 05  17 30 52.063   +57 00 33.60  .48752 1.1679  95.5 22.2 .172 160
2026 07 27 06  17 30 49.103   +57 00 54.68  .48715 1.1676  95.5 22.2 .177 160
2026 07 27 07  17 30 46.143   +57 01 15.73  .48678 1.1673  95.5 22.2 .182 159
2026 07 27 08  17 30 43.183   +57 01 36.76  .48641 1.1670  95.5 22.2 .187 159
2026 07 27 09  17 30 40.224   +57 01 57.76  .48604 1.1667  95.5 22.2 .192 159
2026 07 27 10  17 30 37.264   +57 02 18.73  .48567 1.1664  95.4 22.2 .197 159
2026 07 27 11  17 30 34.305   +57 02 39.68  .48530 1.1661  95.4 22.2 .202 159
2026 07 27 12  17 30 31.347   +57 03 00.61  .48493 1.1658  95.4 22.2 .207 159
2026 07 27 13  17 30 28.388   +57 03 21.51  .48455 1.1655  95.4 22.2 .212 158
2026 07 27 14  17 30 25.430   +57 03 42.38  .48418 1.1653  95.4 22.2 .217 158
2026 07 27 15  17 30 22.472   +57 04 03.23  .48381 1.1650  95.4 22.2 .223 158
2026 07 27 16  17 30 19.514   +57 04 24.05  .48344 1.1647  95.4 22.2 .228 158
2026 07 27 17  17 30 16.557   +57 04 44.85  .48307 1.1644  95.3 22.2 .234 158
2026 07 27 18  17 30 13.600   +57 05 05.63  .48269 1.1641  95.3 22.2 .239 158
2026 07 27 19  17 30 10.643   +57 05 26.38  .48232 1.1638  95.3 22.2 .245 157
2026 07 27 20  17 30 07.686   +57 05 47.10  .48195 1.1635  95.3 22.2 .250 157